TimeEST,TemperatureF,Dew PointF,Humidity,Sea Level PressureIn,VisibilityMPH,Wind Direction,Wind SpeedMPH,Gust SpeedMPH,PrecipitationIn,Events,Conditions,WindDirDegrees,DateUTC
1:27 AM,46.4,44.6,93,30.14,7.0,Calm,Calm,-,N/A,,Overcast,0,2012-12-04 06:27:00
1:53 AM,48.0,45.0,89,30.15,7.0,Calm,Calm,-,N/A,,Overcast,0,2012-12-04 06:53:00
2:29 AM,48.2,44.6,87,30.15,7.0,South,3.5,-,N/A,,Overcast,190,2012-12-04 07:29:00
2:42 AM,46.4,44.6,93,30.14,7.0,Calm,Calm,-,N/A,,Mostly Cloudy,0,2012-12-04 07:42:00
2:53 AM,46.9,45.0,93,30.15,7.0,Calm,Calm,-,N/A,,Overcast,0,2012-12-04 07:53:00
3:38 AM,46.4,44.6,93,30.13,6.0,Calm,Calm,-,N/A,,Overcast,0,2012-12-04 08:38:00
3:53 AM,46.0,44.1,93,30.14,5.0,Calm,Calm,-,N/A,,Scattered Clouds,0,2012-12-04 08:53:00
4:07 AM,44.6,42.8,93,30.13,2.0,East,3.5,-,N/A,,Partly Cloudy,80,2012-12-04 09:07:00
4:22 AM,42.8,42.8,100,30.13,3.0,Calm,Calm,-,N/A,,Partly Cloudy,0,2012-12-04 09:22:00
4:30 AM,44.6,42.8,93,30.13,2.5,East,3.5,-,N/A,,Partly Cloudy,80,2012-12-04 09:30:00
4:38 AM,42.8,42.8,100,30.13,4.0,ENE,3.5,-,N/A,,Scattered Clouds,60,2012-12-04 09:38:00
4:53 AM,42.1,41.0,96,30.14,1.8,Calm,Calm,-,N/A,,Partly Cloudy,0,2012-12-04 09:53:00
5:09 AM,42.8,41.0,93,30.12,0.8,Calm,Calm,-,N/A,,Mist,0,2012-12-04 10:09:00
5:19 AM,42.8,39.2,87,30.12,0.8,Calm,Calm,-,N/A,,Scattered Clouds,0,2012-12-04 10:19:00
5:37 AM,41.0,39.2,93,30.12,0.8,Calm,Calm,-,N/A,,Mostly Cloudy,0,2012-12-04 10:37:00
6:02 AM,42.8,41.0,93,30.12,1.5,Calm,Calm,-,N/A,,Partly Cloudy,0,2012-12-04 11:02:00
6:22 AM,41.0,39.2,93,30.12,0.8,Calm,Calm,-,N/A,,Mostly Cloudy,0,2012-12-04 11:22:00
6:32 AM,41.0,39.2,93,30.12,0.2,Variable,3.5,-,N/A,Fog,Fog,0,2012-12-04 11:32:00
6:43 AM,41.0,39.2,93,30.12,0.8,Variable,3.5,-,N/A,,Mostly Cloudy,0,2012-12-04 11:43:00
6:53 AM,39.9,39.0,97,30.13,0.5,Calm,Calm,-,N/A,Fog,Fog,0,2012-12-04 11:53:00
7:02 AM,39.2,39.2,100,30.12,3.0,Calm,Calm,-,N/A,,Scattered Clouds,0,2012-12-04 12:02:00
7:53 AM,42.1,39.9,92,30.13,5.0,NNE,4.6,-,N/A,,Scattered Clouds,30,2012-12-04 12:53:00
8:53 AM,48.9,46.9,93,30.13,5.0,Calm,Calm,-,N/A,,Clear,0,2012-12-04 13:53:00
9:53 AM,59.0,52.0,78,30.12,8.0,Calm,Calm,-,N/A,,Clear,0,2012-12-04 14:53:00
10:53 AM,64.9,50.0,58,30.09,10.0,WSW,19.6,26.5,N/A,,Clear,250,2012-12-04 15:53:00
11:53 AM,66.9,50.0,54,30.05,10.0,SW,11.5,-,N/A,,Clear,230,2012-12-04 16:53:00
12:53 PM,68.0,48.9,50,30.01,10.0,SW,16.1,25.3,N/A,,Clear,230,2012-12-04 17:53:00
1:53 PM,69.1,46.9,45,29.96,10.0,SW,12.7,-,N/A,,Clear,220,2012-12-04 18:53:00
2:53 PM,68.0,48.0,49,29.96,10.0,South,15.0,25.3,N/A,,Clear,190,2012-12-04 19:53:00
3:53 PM,64.9,48.9,56,29.95,10.0,SSW,11.5,20.7,N/A,,Clear,200,2012-12-04 20:53:00
4:53 PM,63.0,48.0,58,29.95,10.0,SSW,12.7,-,N/A,,Scattered Clouds,200,2012-12-04 21:53:00
5:53 PM,62.1,48.9,62,29.93,10.0,SSW,9.2,-,N/A,,Overcast,200,2012-12-04 22:53:00
6:53 PM,62.1,48.9,62,29.91,10.0,SSW,16.1,21.9,N/A,,Mostly Cloudy,210,2012-12-04 23:53:00
7:53 PM,62.1,48.9,62,29.90,10.0,SW,15.0,21.9,N/A,,Overcast,220,2012-12-05 00:53:00
8:53 PM,62.1,48.9,62,29.90,10.0,NW,11.5,18.4,0.00,,Overcast,310,2012-12-05 01:53:00
9:53 PM,53.1,48.0,83,29.96,8.0,Calm,Calm,-,0.11,Rain,Light Rain,0,2012-12-05 02:53:00
10:15 PM,51.8,46.4,82,29.97,4.0,Variable,5.8,-,0.03,Rain,Light Rain,0,2012-12-05 03:15:00
10:28 PM,51.8,44.6,76,29.97,9.0,NNW,4.6,-,0.03,Rain,Light Rain,330,2012-12-05 03:28:00
10:53 PM,50.0,45.0,83,29.98,8.0,West,4.6,-,0.04,Rain,Light Rain,280,2012-12-05 03:53:00
11:01 PM,50.0,44.6,82,29.99,7.0,West,4.6,-,0.01,Rain,Light Rain,270,2012-12-05 04:01:00
11:30 PM,48.2,42.8,82,29.99,8.0,WNW,11.5,18.4,0.05,Rain,Rain,300,2012-12-05 04:30:00
11:53 PM,48.0,42.1,80,29.99,8.0,West,5.8,-,0.06,Rain,Light Rain,270,2012-12-05 04:53:00